Location: Hurstbourne Priors
(51.2000°N, 1.3667°W)
Time: 14:58:49
(UTC+00:00)

A-11 Canister half - All Passes

Search period start: 11 April 2021 00:00
Search period end: 21 April 2021 00:00
Orbit: 1525 x 1683 km, 47.3° (Epoch: 11 April)

Date Brightness Start Highest point End Pass type
(mag) Time Alt. Az. Time Alt. Az. Time Alt. Az.
11 Apr - 01:13:31 10° W 01:20:32 22° SW 01:27:27 10° S visible
11 Apr - 16:34:28 10° S 16:42:38 29° SE 16:50:48 10° E daylight
11 Apr - 18:36:30 10° SW 18:46:21 59° SSE 18:56:11 10° E daylight
11 Apr - 20:40:55 10° W 20:51:02 72° S 21:01:00 10° E visible
11 Apr - 22:45:53 10° W 22:55:35 53° SSW 23:05:02 10° SE visible
12 Apr - 00:51:42 10° W 00:58:59 23° SW 01:06:06 10° S visible
12 Apr - 16:13:02 10° S 16:21:01 28° SE 16:29:03 10° E daylight
12 Apr - 18:14:52 10° SW 18:24:42 58° SSE 18:34:30 10° E daylight
12 Apr - 20:19:14 10° W 20:29:21 72° S 20:39:20 10° E visible
12 Apr - 22:24:11 10° W 22:33:56 55° SSW 22:43:27 10° SE visible
13 Apr - 00:29:54 10° W 00:37:23 25° SW 00:44:45 10° S visible
13 Apr - 15:51:36 10° S 15:59:26 27° SE 16:07:17 10° E daylight
13 Apr - 17:53:16 10° SW 18:03:02 56° SSE 18:12:50 10° E daylight
13 Apr - 19:57:33 10° W 20:07:40 72° S 20:17:40 10° E visible
13 Apr - 22:02:29 10° W 22:12:17 56° SSW 22:21:52 10° SE visible
14 Apr - 00:08:07 10° W 00:15:49 26° SW 00:23:23 10° S visible
14 Apr - 15:30:12 10° S 15:37:50 25° SE 15:45:32 10° E daylight
14 Apr - 17:31:39 10° SW 17:41:23 55° SSE 17:51:09 10° E daylight
14 Apr - 19:35:53 10° W 19:46:00 72° S 19:56:01 10° E visible
14 Apr - 21:40:48 10° W 21:50:38 57° SSW 22:00:16 10° SE visible
14 Apr - 23:46:20 10° W 23:54:14 27° SW 00:01:59 10° S visible
15 Apr - 15:08:50 10° S 15:16:15 24° SE 15:23:44 10° E daylight
15 Apr - 17:10:03 10° SW 17:19:44 54° SSE 17:29:28 10° E daylight
15 Apr - 19:14:12 10° W 19:24:18 72° S 19:34:21 10° E visible
15 Apr - 21:19:06 10° W 21:28:59 58° SSW 21:38:39 10° SE visible
15 Apr - 23:24:34 10° W 23:32:39 28° SW 23:40:34 10° S visible
16 Apr - 14:47:27 10° S 14:54:40 23° SE 15:01:56 10° E daylight
16 Apr - 16:48:27 10° SW 16:58:05 52° SSE 17:07:47 10° E daylight
16 Apr - 18:52:31 10° WSW 19:02:37 72° S 19:12:40 10° E daylight
16 Apr - 20:57:24 10° W 21:07:19 60° SSW 21:17:03 10° SE visible
16 Apr - 23:02:48 10° W 23:11:03 30° SW 23:19:09 10° SSE visible
17 Apr - 14:26:07 10° S 14:33:05 22° SE 14:40:07 10° E daylight
17 Apr - 16:26:51 10° SW 16:36:26 51° SSE 16:46:05 10° E daylight
17 Apr - 18:30:51 10° WSW 18:40:56 72° S 18:51:01 10° E daylight
17 Apr - 20:35:43 10° W 20:45:39 61° SSW 20:55:26 10° ESE visible
17 Apr - 22:41:03 10° W 22:49:27 31° SW 22:57:42 10° SSE visible
18 Apr - 14:04:48 10° S 14:11:30 21° SE 14:18:18 10° E daylight
18 Apr - 16:05:16 10° SW 16:14:47 50° SSE 16:24:23 10° E daylight
18 Apr - 18:09:11 10° WSW 18:19:15 71° S 18:29:20 10° E daylight
18 Apr - 20:14:02 10° W 20:23:59 62° SSW 20:33:49 10° ESE visible
18 Apr - 22:19:19 10° W 22:27:50 32° SW 22:36:14 10° SSE visible
19 Apr - 13:43:30 10° S 13:49:56 20° SE 13:56:26 10° E daylight
19 Apr - 15:43:42 10° SW 15:53:08 48° SSE 16:02:42 10° E daylight
19 Apr - 17:47:31 10° WSW 17:57:35 71° S 18:07:39 10° E daylight
19 Apr - 19:52:20 10° W 20:02:19 63° SSW 20:12:11 10° ESE visible
19 Apr - 21:57:35 10° W 22:06:15 34° SW 22:14:47 10° SSE visible
20 Apr - 13:22:14 10° SSE 13:28:22 18° SE 13:34:34 10° E daylight
20 Apr - 15:22:08 10° SW 15:31:30 47° SSE 15:41:00 10° E daylight
20 Apr - 17:25:51 10° WSW 17:35:53 71° S 17:45:59 10° E daylight
20 Apr - 19:30:40 10° W 19:40:39 64° SSW 19:50:34 10° ESE visible
20 Apr - 21:35:51 10° W 21:44:38 35° SW 21:53:18 10° SSE visible
